Date,TemperatureHighF,TemperatureAvgF,TemperatureLowF,DewpointHighF,DewpointAvgF,DewpointLowF,HumidityHigh,HumidityAvg,HumidityLow,PressureMaxIn,PressureMinIn,WindSpeedMaxMPH,WindSpeedAvgMPH,GustSpeedMaxMPH,PrecipitationSumIn
2013-1-1,53.2,42.9,33.9,41.8,36.8,31.4,94,80,60,30.24,30.17,5,0,5,0.01
2013-1-2,57.1,39.8,29.5,39.9,33.6,27.7,95,80,46,30.22,30.09,1,0,1,0.00
2013-1-3,34.0,33.8,33.6,31.6,31.5,31.3,91,91,91,30.13,30.13,0,0,0,0.00
2013-1-4,58.9,47.0,35.2,43.9,39.5,33.9,96,77,48,30.26,30.14,1,0,2,0.00
2013-1-5,56.1,45.6,35.3,48.0,42.1,33.4,95,88,71,30.23,30.03,5,0,5,0.08
2013-1-6,48.7,45.2,38.1,46.4,43.4,36.5,98,93,87,30.17,30.02,3,0,3,0.10
2013-1-7,56.9,43.5,34.6,49.0,40.2,33.2,97,89,69,30.23,30.12,3,0,3,0.00
2013-1-8,62.5,51.9,41.6,49.2,44.5,39.5,93,77,57,30.14,30.08,2,0,3,0.01
2013-1-9,55.1,45.4,39.3,49.2,42.3,37.6,96,89,77,30.12,29.97,4,0,6,0.00
2013-1-10,50.7,42.5,37.0,39.7,36.5,32.8,93,80,61,30.17,30.05,5,0,6,0.00
2013-1-11,52.0,41.3,31.5,41.5,35.5,29.2,95,81,58,30.24,30.10,4,0,4,0.00
2013-1-12,50.9,39.2,30.2,36.4,29.3,21.2,95,71,34,30.23,30.10,0,0,0,0.00
2013-1-13,51.3,41.4,31.9,31.5,27.6,21.3,85,61,32,30.22,30.14,7,0,7,0.00
2013-1-14,52.7,37.8,27.5,28.4,24.0,19.8,81,60,30,30.38,30.19,4,0,4,0.00
2013-1-15,49.7,32.4,28.3,32.0,27.2,25.2,90,82,45,30.45,30.36,2,0,2,0.00
2013-1-17,48.4,45.2,40.6,39.1,38.0,37.0,90,76,68,30.23,30.21,1,0,2,0.00
2013-1-24,54.4,53.1,52.4,52.1,51.4,51.0,95,94,92,30.15,30.10,0,0,0,0.01
2013-1-25,64.7,55.4,50.4,57.5,52.4,48.2,97,90,73,30.15,30.00,3,0,4,0.03
2013-1-26,59.7,49.5,41.3,49.7,43.6,38.3,96,82,53,30.06,29.97,5,0,6,0.01
2013-1-27,57.1,46.6,38.8,42.4,38.8,32.7,93,76,41,30.15,30.05,5,0,5,0.00
2013-1-28,58.7,46.9,38.0,44.1,40.4,35.3,93,79,54,30.27,30.13,5,0,6,0.00
2013-1-29,45.6,39.8,38.0,43.9,37.6,36.1,95,92,87,30.32,30.26,1,0,2,0.00
2013-1-31,56.3,47.2,41.7,45.9,42.6,39.3,91,84,68,30.15,30.14,0,0,0,0.00